Time,TemperatureF,DewpointF,PressureIn,WindDirection,WindDirectionDegrees,WindSpeedMPH,WindSpeedGustMPH,Humidity,HourlyPrecipIn,Conditions,Clouds,dailyrainin,SoftwareType,DateUTC
2013-07-15 00:02:00,72.0,63.0,30.15,SE,129,0.0,-999.0,73,-99.99,,,-99.99,,2013-07-15 05:02:00,
2013-07-15 00:11:00,71.0,63.0,30.16,SE,129,0.0,-999.0,75,-99.99,,,-99.99,,2013-07-15 05:11:00,
2013-07-15 00:21:00,70.0,62.0,30.16,SE,129,0.0,-999.0,77,-99.99,,,-99.99,,2013-07-15 05:21:00,
2013-07-15 00:32:00,70.0,62.0,30.16,SE,129,0.0,-999.0,77,-99.99,,,-99.99,,2013-07-15 05:32:00,
2013-07-15 00:43:00,70.0,64.0,30.16,SE,129,0.0,-999.0,80,-99.99,,,-99.99,,2013-07-15 05:43:00,
2013-07-15 00:53:00,69.0,62.0,30.16,SE,129,0.0,-999.0,79,-99.99,,,-99.99,,2013-07-15 05:53:00,
2013-07-15 01:02:00,69.0,62.0,30.16,SE,129,0.0,-999.0,79,-99.99,,,-99.99,,2013-07-15 06:02:00,
2013-07-15 01:11:00,69.0,63.0,30.16,SE,129,0.0,-999.0,81,-99.99,,,-99.99,,2013-07-15 06:11:00,
2013-07-15 01:22:00,68.0,63.0,30.16,SE,129,0.0,-999.0,83,-99.99,,,-99.99,,2013-07-15 06:22:00,
2013-07-15 01:32:00,68.0,63.0,30.16,SE,129,0.0,-999.0,83,-99.99,,,-99.99,,2013-07-15 06:32:00,
2013-07-15 01:42:00,68.0,63.0,30.16,SE,129,0.0,-999.0,83,-99.99,,,-99.99,,2013-07-15 06:42:00,
2013-07-15 01:53:00,67.0,62.0,30.16,SE,129,0.0,-999.0,84,-99.99,,,-99.99,,2013-07-15 06:53:00,
2013-07-15 02:01:00,67.0,62.0,30.16,SE,129,0.0,-999.0,84,-99.99,,,-99.99,,2013-07-15 07:01:00,
2013-07-15 02:11:00,67.0,62.0,30.16,SE,129,0.0,-999.0,85,-99.99,,,-99.99,,2013-07-15 07:11:00,
2013-07-15 02:21:00,67.0,63.0,30.17,SE,129,0.0,-999.0,87,-99.99,,,-99.99,,2013-07-15 07:21:00,
2013-07-15 02:33:00,67.0,63.0,30.17,SE,129,0.0,-999.0,87,-99.99,,,-99.99,,2013-07-15 07:33:00,
2013-07-15 02:44:00,67.0,63.0,30.17,SE,129,0.0,-999.0,87,-99.99,,,-99.99,,2013-07-15 07:44:00,
2013-07-15 02:53:00,68.0,63.0,30.17,SE,129,0.0,-999.0,83,-99.99,,,-99.99,,2013-07-15 07:53:00,
2013-07-15 03:01:00,68.0,63.0,30.17,SE,129,0.0,-999.0,83,-99.99,,,-99.99,,2013-07-15 08:01:00,
2013-07-15 03:11:00,67.0,62.0,30.16,SE,129,0.0,-999.0,85,-99.99,,,-99.99,,2013-07-15 08:11:00,
2013-07-15 03:22:00,68.0,63.0,30.16,SE,129,0.0,-999.0,85,-99.99,,,-99.99,,2013-07-15 08:22:00,
2013-07-15 03:32:00,68.0,63.0,30.16,SE,129,0.0,-999.0,85,-99.99,,,-99.99,,2013-07-15 08:32:00,
2013-07-15 03:43:00,67.0,63.0,30.16,SE,129,0.0,-999.0,86,-99.99,,,-99.99,,2013-07-15 08:43:00,
2013-07-15 03:53:00,67.0,63.0,30.17,SE,129,0.0,-999.0,87,-99.99,,,-99.99,,2013-07-15 08:53:00,
2013-07-15 04:02:00,67.0,63.0,30.17,SE,129,0.0,-999.0,87,-99.99,,,-99.99,,2013-07-15 09:02:00,
2013-07-15 04:11:00,67.0,63.0,30.16,SE,129,0.0,-999.0,88,-99.99,,,-99.99,,2013-07-15 09:11:00,
2013-07-15 04:22:00,66.0,62.0,30.16,SE,129,0.0,-999.0,88,-99.99,,,-99.99,,2013-07-15 09:22:00,
2013-07-15 04:32:00,66.0,62.0,30.16,SE,129,0.0,-999.0,88,-99.99,,,-99.99,,2013-07-15 09:32:00,
2013-07-15 04:43:00,66.0,63.0,30.16,SE,129,0.0,-999.0,89,-99.99,,,-99.99,,2013-07-15 09:43:00,
2013-07-15 04:52:00,66.0,63.0,30.16,SE,129,0.0,-999.0,91,-99.99,,,-99.99,,2013-07-15 09:52:00,
2013-07-15 05:02:00,66.0,63.0,30.16,SE,129,0.0,-999.0,91,-99.99,,,-99.99,,2013-07-15 10:02:00,
2013-07-15 05:11:00,67.0,64.0,30.16,SE,129,0.0,-999.0,90,-99.99,,,-99.99,,2013-07-15 10:11:00,
2013-07-15 05:22:00,67.0,64.0,30.17,SE,129,0.0,-999.0,89,-99.99,,,-99.99,,2013-07-15 10:22:00,
2013-07-15 05:32:00,67.0,64.0,30.17,SE,129,0.0,-999.0,89,-99.99,,,-99.99,,2013-07-15 10:32:00,
2013-07-15 05:43:00,68.0,64.0,30.17,SE,129,0.0,-999.0,88,-99.99,,,-99.99,,2013-07-15 10:43:00,
2013-07-15 05:53:00,67.0,63.0,30.17,SE,125,0.0,-999.0,88,-99.99,,,-99.99,,2013-07-15 10:53:00,
2013-07-15 06:02:00,67.0,63.0,30.17,SE,125,0.0,-999.0,88,-99.99,,,-99.99,,2013-07-15 11:02:00,
2013-07-15 06:11:00,67.0,64.0,30.17,ESE,121,0.0,-999.0,89,-99.99,,,-99.99,,2013-07-15 11:11:00,
2013-07-15 06:22:00,67.0,64.0,30.17,ESE,115,0.0,-999.0,90,-99.99,,,-99.99,,2013-07-15 11:22:00,
2013-07-15 06:32:00,67.0,64.0,30.17,ESE,115,0.0,-999.0,90,-99.99,,,-99.99,,2013-07-15 11:32:00,
2013-07-15 06:42:00,68.0,65.0,30.18,SE,130,0.0,-999.0,90,-99.99,,,-99.99,,2013-07-15 11:42:00,
2013-07-15 06:52:00,69.0,66.0,30.18,ENE,60,0.0,-999.0,90,-99.99,,,-99.99,,2013-07-15 11:52:00,
2013-07-15 07:01:00,69.0,66.0,30.18,ENE,60,0.0,-999.0,90,-99.99,,,-99.99,,2013-07-15 12:01:00,
2013-07-15 07:11:00,69.0,66.0,30.19,ENE,66,0.0,-999.0,89,-99.99,,,-99.99,,2013-07-15 12:11:00,
2013-07-15 07:22:00,71.0,67.0,30.19,East,93,0.0,-999.0,88,-99.99,,,-99.99,,2013-07-15 12:22:00,
2013-07-15 07:32:00,71.0,67.0,30.19,East,93,0.0,-999.0,88,-99.99,,,-99.99,,2013-07-15 12:32:00,
2013-07-15 07:42:00,72.0,68.0,30.19,East,93,1.0,-999.0,86,-99.99,,,-99.99,,2013-07-15 12:42:00,
2013-07-15 07:52:00,73.0,69.0,30.19,East,89,1.0,-999.0,86,-99.99,,,-99.99,,2013-07-15 12:52:00,
2013-07-15 08:01:00,73.0,69.0,30.19,East,89,1.0,-999.0,86,-99.99,,,-99.99,,2013-07-15 13:01:00,
2013-07-15 08:11:00,74.0,69.0,30.19,ESE,110,0.0,-999.0,84,-99.99,,,-99.99,,2013-07-15 13:11:00,
2013-07-15 08:22:00,75.0,69.0,30.19,East,96,2.0,-999.0,83,-99.99,,,-99.99,,2013-07-15 13:22:00,
2013-07-15 08:33:00,75.0,69.0,30.19,East,96,2.0,-999.0,83,-99.99,,,-99.99,,2013-07-15 13:33:00,
2013-07-15 08:43:00,76.0,70.0,30.20,East,95,2.0,-999.0,82,-99.99,,,-99.99,,2013-07-15 13:43:00,
2013-07-15 08:53:00,78.0,71.0,30.20,East,94,1.0,-999.0,79,-99.99,,,-99.99,,2013-07-15 13:53:00,
2013-07-15 09:02:00,78.0,71.0,30.20,East,94,1.0,-999.0,79,-99.99,,,-99.99,,2013-07-15 14:02:00,
2013-07-15 09:11:00,79.0,71.0,30.20,East,95,3.0,-999.0,76,-99.99,,,-99.99,,2013-07-15 14:11:00,
2013-07-15 09:22:00,79.0,71.0,30.20,East,88,4.0,-999.0,76,-99.99,,,-99.99,,2013-07-15 14:22:00,
2013-07-15 09:33:00,79.0,71.0,30.20,East,88,4.0,-999.0,76,-99.99,,,-99.99,,2013-07-15 14:33:00,
2013-07-15 09:42:00,80.0,71.0,30.20,East,90,4.0,-999.0,74,-99.99,,,-99.99,,2013-07-15 14:42:00,
2013-07-15 09:56:00,81.0,71.0,30.19,East,96,2.0,-999.0,71,-99.99,,,-99.99,,2013-07-15 14:56:00,
2013-07-15 10:03:00,81.0,71.0,30.19,East,96,2.0,-999.0,71,-99.99,,,-99.99,,2013-07-15 15:03:00,
2013-07-15 10:27:00,83.0,71.0,30.20,ESE,120,2.0,-999.0,68,-99.99,,,-99.99,,2013-07-15 15:27:00,
2013-07-15 10:38:00,83.0,71.0,30.20,ESE,120,2.0,-999.0,68,-99.99,,,-99.99,,2013-07-15 15:38:00,
2013-07-15 10:53:00,85.0,70.0,30.20,ESE,109,4.0,-999.0,60,-99.99,,,-99.99,,2013-07-15 15:53:00,
2013-07-15 11:07:00,85.0,70.0,30.20,ESE,109,4.0,-999.0,60,-99.99,,,-99.99,,2013-07-15 16:07:00,
2013-07-15 11:15:00,84.0,70.0,30.20,SE,132,3.0,-999.0,63,-99.99,,,-99.99,,2013-07-15 16:15:00,
2013-07-15 11:24:00,84.0,70.0,30.20,ESE,119,3.0,-999.0,64,-99.99,,,-99.99,,2013-07-15 16:24:00,
2013-07-15 11:33:00,84.0,70.0,30.20,ESE,119,3.0,-999.0,64,-99.99,,,-99.99,,2013-07-15 16:33:00,
2013-07-15 11:45:00,85.0,70.0,30.20,SE,143,2.0,-999.0,62,-99.99,,,-99.99,,2013-07-15 16:45:00,
2013-07-15 11:52:00,86.0,70.0,30.19,ESE,118,3.0,-999.0,60,-99.99,,,-99.99,,2013-07-15 16:52:00,
2013-07-15 12:05:00,86.0,70.0,30.19,ESE,118,3.0,-999.0,60,-99.99,,,-99.99,,2013-07-15 17:05:00,
2013-07-15 12:13:00,87.0,71.0,30.19,ESE,115,2.0,-999.0,59,-99.99,,,-99.99,,2013-07-15 17:13:00,
2013-07-15 12:23:00,87.0,71.0,30.19,SE,142,3.0,-999.0,59,-99.99,,,-99.99,,2013-07-15 17:23:00,
2013-07-15 12:36:00,87.0,71.0,30.19,SE,142,3.0,-999.0,59,-99.99,,,-99.99,,2013-07-15 17:36:00,
2013-07-15 12:48:00,87.0,71.0,30.19,SW,229,3.0,-999.0,59,-99.99,,,-99.99,,2013-07-15 17:48:00,
2013-07-15 12:55:00,87.0,71.0,30.19,SE,146,3.0,-999.0,60,-99.99,,,-99.99,,2013-07-15 17:55:00,
2013-07-15 13:05:00,87.0,71.0,30.19,SE,146,3.0,-999.0,60,-99.99,,,-99.99,,2013-07-15 18:05:00,
2013-07-15 13:16:00,86.0,71.0,30.19,SSW,200,3.0,-999.0,62,-99.99,,,-99.99,,2013-07-15 18:16:00,
2013-07-15 13:27:00,86.0,72.0,30.18,SSW,192,3.0,-999.0,63,-99.99,,,-99.99,,2013-07-15 18:27:00,
2013-07-15 13:37:00,86.0,72.0,30.18,SSW,192,3.0,-999.0,63,-99.99,,,-99.99,,2013-07-15 18:37:00,
2013-07-15 13:45:00,88.0,72.0,30.18,SW,215,3.0,-999.0,59,-99.99,,,-99.99,,2013-07-15 18:45:00,
2013-07-15 14:05:00,89.0,72.0,30.17,ESE,107,3.0,-999.0,57,-99.99,,,-99.99,,2013-07-15 19:05:00,
2013-07-15 14:11:00,88.0,71.0,30.17,East,90,4.0,-999.0,58,-99.99,,,-99.99,,2013-07-15 19:11:00,
2013-07-15 14:24:00,89.0,72.0,30.17,ESE,108,4.0,-999.0,57,-99.99,,,-99.99,,2013-07-15 19:24:00,
2013-07-15 14:36:00,89.0,72.0,30.17,ESE,108,4.0,-999.0,57,-99.99,,,-99.99,,2013-07-15 19:36:00,
2013-07-15 14:47:00,89.0,72.0,30.17,SE,132,4.0,-999.0,57,-99.99,,,-99.99,,2013-07-15 19:47:00,
2013-07-15 14:56:00,89.0,72.0,30.16,SE,130,4.0,-999.0,58,-99.99,,,-99.99,,2013-07-15 19:56:00,
2013-07-15 15:06:00,89.0,72.0,30.16,SE,130,4.0,-999.0,58,-99.99,,,-99.99,,2013-07-15 20:06:00,
2013-07-15 15:27:00,89.0,72.0,30.15,ESE,114,5.0,-999.0,57,-99.99,,,-99.99,,2013-07-15 20:27:00,
2013-07-15 15:37:00,89.0,72.0,30.15,ESE,114,5.0,-999.0,57,-99.99,,,-99.99,,2013-07-15 20:37:00,
2013-07-15 15:43:00,89.0,72.0,30.15,ESE,119,7.0,-999.0,57,-99.99,,,-99.99,,2013-07-15 20:43:00,
2013-07-15 15:54:00,88.0,71.0,30.14,SE,138,6.0,-999.0,58,-99.99,,,-99.99,,2013-07-15 20:54:00,
2013-07-15 16:02:00,88.0,71.0,30.14,SE,138,6.0,-999.0,58,-99.99,,,-99.99,,2013-07-15 21:02:00,
2013-07-15 16:12:00,88.0,73.0,30.14,SE,125,4.0,-999.0,61,-99.99,,,-99.99,,2013-07-15 21:12:00,
2013-07-15 16:23:00,88.0,72.0,30.14,SE,131,4.0,-999.0,59,-99.99,,,-99.99,,2013-07-15 21:23:00,
2013-07-15 16:47:00,89.0,72.0,30.14,SE,134,3.0,-999.0,58,-99.99,,,-99.99,,2013-07-15 21:47:00,
2013-07-15 16:55:00,89.0,72.0,30.13,SE,131,5.0,-999.0,57,-99.99,,,-99.99,,2013-07-15 21:55:00,
2013-07-15 17:02:00,89.0,72.0,30.13,SE,131,5.0,-999.0,57,-99.99,,,-99.99,,2013-07-15 22:02:00,
2013-07-15 17:17:00,88.0,72.0,30.13,ESE,119,4.0,-999.0,59,-99.99,,,-99.99,,2013-07-15 22:17:00,
2013-07-15 17:22:00,87.0,72.0,30.13,SE,143,3.0,-999.0,61,-99.99,,,-99.99,,2013-07-15 22:22:00,
2013-07-15 17:34:00,87.0,72.0,30.13,SE,143,3.0,-999.0,61,-99.99,,,-99.99,,2013-07-15 22:34:00,
2013-07-15 17:43:00,87.0,73.0,30.13,ESE,121,3.0,-999.0,63,-99.99,,,-99.99,,2013-07-15 22:43:00,
2013-07-15 17:54:00,87.0,73.0,30.12,SE,127,4.0,-999.0,63,-99.99,,,-99.99,,2013-07-15 22:54:00,
2013-07-15 18:06:00,87.0,73.0,30.12,SE,127,4.0,-999.0,63,-99.99,,,-99.99,,2013-07-15 23:06:00,
2013-07-15 18:13:00,84.0,72.0,30.12,SE,140,7.0,-999.0,68,-99.99,,,-99.99,,2013-07-15 23:13:00,
2013-07-15 18:27:00,81.0,73.0,30.12,SE,137,3.0,-999.0,77,-99.99,,,-99.99,,2013-07-15 23:27:00,
2013-07-15 18:37:00,81.0,73.0,30.12,SE,137,3.0,-999.0,77,-99.99,,,-99.99,,2013-07-15 23:37:00,
2013-07-15 18:46:00,82.0,74.0,30.12,East,89,3.0,-999.0,77,-99.99,,,-99.99,,2013-07-15 23:46:00,
2013-07-15 18:53:00,83.0,75.0,30.13,ESE,103,1.0,-999.0,76,-99.99,,,-99.99,,2013-07-15 23:53:00,
2013-07-15 19:03:00,83.0,75.0,30.13,ESE,103,1.0,-999.0,76,-99.99,,,-99.99,,2013-07-16 00:03:00,
2013-07-15 19:15:00,84.0,76.0,30.12,East,95,3.0,-999.0,76,-99.99,,,-99.99,,2013-07-16 00:15:00,
2013-07-15 19:25:00,84.0,76.0,30.12,East,95,1.0,-999.0,77,-99.99,,,-99.99,,2013-07-16 00:25:00,
2013-07-15 19:33:00,84.0,76.0,30.12,East,95,1.0,-999.0,77,-99.99,,,-99.99,,2013-07-16 00:33:00,
2013-07-15 19:46:00,83.0,76.0,30.12,SE,129,1.0,-999.0,80,-99.99,,,-99.99,,2013-07-16 00:46:00,
2013-07-15 19:53:00,84.0,76.0,30.12,SE,126,1.0,-999.0,77,-99.99,,,-99.99,,2013-07-16 00:53:00,
2013-07-15 20:15:00,84.0,76.0,30.12,East,98,0.0,-999.0,77,-99.99,,,-99.99,,2013-07-16 01:15:00,
2013-07-15 20:26:00,84.0,76.0,30.12,ESE,102,0.0,-999.0,76,-99.99,,,-99.99,,2013-07-16 01:26:00,
2013-07-15 20:56:00,83.0,75.0,30.12,ESE,102,0.0,-999.0,77,-99.99,,,-99.99,,2013-07-16 01:56:00,
2013-07-15 21:04:00,83.0,75.0,30.12,ESE,102,0.0,-999.0,77,-99.99,,,-99.99,,2013-07-16 02:04:00,
2013-07-15 21:11:00,82.0,75.0,30.12,ESE,102,0.0,-999.0,79,-99.99,,,-99.99,,2013-07-16 02:11:00,
2013-07-15 21:27:00,81.0,74.0,30.12,ESE,102,0.0,-999.0,80,-99.99,,,-99.99,,2013-07-16 02:27:00,
2013-07-15 21:35:00,81.0,74.0,30.12,ESE,102,0.0,-999.0,80,-99.99,,,-99.99,,2013-07-16 02:35:00,
2013-07-15 21:48:00,80.0,74.0,30.13,ESE,102,0.0,-999.0,83,-99.99,,,-99.99,,2013-07-16 02:48:00,
2013-07-15 21:54:00,79.0,73.0,30.14,ESE,102,0.0,-999.0,82,-99.99,,,-99.99,,2013-07-16 02:54:00,
2013-07-15 22:38:00,78.0,73.0,30.14,ESE,102,0.0,-999.0,85,-99.99,,,-99.99,,2013-07-16 03:38:00,
2013-07-15 22:47:00,78.0,73.0,30.15,ESE,102,0.0,-999.0,85,-99.99,,,-99.99,,2013-07-16 03:47:00,
2013-07-15 22:56:00,78.0,73.0,30.15,ESE,102,0.0,-999.0,86,-99.99,,,-99.99,,2013-07-16 03:56:00,
2013-07-15 23:01:00,78.0,73.0,30.15,ESE,102,0.0,-999.0,86,-99.99,,,-99.99,,2013-07-16 04:01:00,
2013-07-15 23:12:00,78.0,73.0,30.15,ESE,102,0.0,-999.0,86,-99.99,,,-99.99,,2013-07-16 04:12:00,
2013-07-15 23:22:00,78.0,73.0,30.16,ESE,103,1.0,-999.0,86,-99.99,,,-99.99,,2013-07-16 04:22:00,
2013-07-15 23:32:00,78.0,73.0,30.16,ESE,103,1.0,-999.0,86,-99.99,,,-99.99,,2013-07-16 04:32:00,
2013-07-15 23:43:00,78.0,73.0,30.16,ESE,103,0.0,-999.0,85,-99.99,,,-99.99,,2013-07-16 04:43:00,
2013-07-15 23:53:00,77.0,72.0,30.16,ESE,113,0.0,-999.0,86,-99.99,,,-99.99,,2013-07-16 04:53:00,